sat.trackr.live / text

‹ back to catalog

IRIDIUM 128

NORAD 42811 · 2017-039J

PAYLOAD ACTIVE UNKNOWN

§ Identity

Operator
Country
US
Launch date
2017-06-25
Launch site
AFWTR
Launch vehicle
Mass (kg)
RCS (m²)

Purposes: comms

External: N2YO · Heavens-Above · Gunter

§ Orbital elements

Epoch: 2026-05-25T02:46:42.693024Z

Period
100.40 min
Inclination
86.3987°
Eccentricity
0.0002083
Mean motion
14.34217702 rev/d
Perigee alt
776.2 km
Apogee alt
779.2 km
Semi-major
7,155.8 km
B*
-3.1072e-6
RAAN
34.7942°
Arg perigee
80.0921°
Mean anomaly
280.0510°
Rev number
46,667

§ Raw data

IRIDIUM 1281 42811U 17039J   26145.11577191  .00000011  00000+0 -31072-5 0  99962 42811  86.3987  34.7942 0002083  80.0921 280.0510 14.34217702466677

JSON: /api/v1/satellites/42811 · /tle

For live sub-satellite position, see the globe view (requires WebGL).

§ Visibility from observer

Set your observer location to see the next 7 days of passes ≥ 10°. The values pass through the URL so the page stays shareable.

No JS? Fill the form by hand. The geolocation button needs JavaScript.